Regional Weather Roundup
Issued by NWS

Home | Current Version | Previous Version | Graphics & Text | Print | Product List | Glossary On
Versions: 1 2 3 4 5 6 7 8 9 10 11 12 13 14 15 16 17 18 19 20 21 22 23 24 25 26 27 28 29 30 31 32 33 34 35 36 37 38 39 40 41 42 43 44 45 46 47 48 49 50
000
ASUS45 KBOU 012010
RWRCO

WEATHER ROUNDUP FOR COLORADO
NATIONAL WEATHER SERVICE PUEBLO CO
200 PM MDT SAT AUG 01 2015

NOTE: "FAIR" INDICATES FEW OR NO CLOUDS BELOW 12000 FEET WITH NO
SIGNIFICANT WEATHER AND/OR OBSTRUCTIONS TO VISIBILITY.

COZ001>005-013-030-031-012100-
...NORTHWEST COLORADO...

CITY           SKY/WX    TMP DP  RH WIND       PRES   REMARKS
CRAIG          SUNNY     89  32  13 VRB3      30.20F
HAYDEN         SUNNY     84  32  15 W5        30.24F
MEEKER         MOSUNNY   87  40  19 CALM      30.21F
MOUNT WERNER   NOT AVBL
STEAMBOAT SPGS FAIR      83  27  12 CALM      30.26F
WALDEN         FAIR      79  23  12 NE6       30.35F
$$

COZ006>008-011-012100-
...WEST CENTRAL VALLEYS...

CITY           SKY/WX    TMP DP  RH WIND       PRES   REMARKS
GRAND JUNCTION MOSUNNY   87  49  26 SW8       30.11F
MONTROSE       PTSUNNY   87  47  24 VRB6      30.21F
EAGLE          MOSUNNY   86  36  16 W5        30.23F
RIFLE          MOSUNNY   91  41  17 VRB7      30.14F
DELTA          NOT AVBL
NUCLA          FAIR      75  50  41 SW10      30.29F
$$

COZ017>023-064>068-012100-
...SOUTHWEST COLORADO...

CITY           SKY/WX    TMP DP  RH WIND       PRES   REMARKS
DURANGO        CLOUDY    75  50  41 W5        30.30F
CORTEZ         MOSUNNY   77  58  51 VRB6      30.25F
PAGOSA SPRINGS FAIR      66  52  60 W7        30.39R THUNDER
TELLURIDE      CLOUDY    63  49  59 CALM      30.50S
WOLF CREEK PAS NOT AVBL
$$

COZ009-010-012-014-032>034-037-058>063-012100-
...CENTRAL COLORADO...

CITY           SKY/WX    TMP DP  RH WIND       PRES   REMARKS
ASPEN          MOSUNNY   79  34  19 NW10      30.32F
BUENA VISTA    FAIR      79  35  20 S9G18     30.32F
COPPER MTN     PTSUNNY   64  23  20 W14G20    30.69S
BERTHOUD PASS  PTSUNNY   55  45  67 N7        30.74F
COTTONWOOD PAS PTSUNNY   72  30  21 SE3       30.49F
GUNNISON       PTSUNNY   75  45  33 CALM      30.33F
KREMMLING      MOSUNNY   81  28  15 N6        30.30F
LEADVILLE      PTSUNNY   73  29  19 N10G18    30.48F
MONARCH PASS   NOT AVBL
SALIDA         NOT AVBL
NIWOT RIDGE    NOT AVBL
SUNLIGHT       MOSUNNY   70  43  37 CALM      30.61F
WILKERSON PASS CLOUDY    63  32  31 NE3       30.64F
$$

COZ069>075-012100-
...SAN LUIS VALLEY/SANGRE DE CRISTO MOUNTAINS...

CITY           SKY/WX    TMP DP  RH WIND       PRES   REMARKS
ALAMOSA        MOSUNNY   74  48  39 SW8       30.32F
LA VETA PASS   CLOUDY    64  41  42 MISG      30.52F THUNDER
SAGUACHE       PTSUNNY   72  46  40 CALM      30.36F
$$

COZ035-036-038>040-012100-
...NORTHERN COLORADO FRONT RANGE...

CITY           SKY/WX    TMP DP  RH WIND       PRES   REMARKS
DENVER INTL AP MOSUNNY   93  42  17 CALM      30.11F
DMNS CITY PARK NOT AVBL
AURORA         MOSUNNY   92  41  17 N7        30.13F
FRONT RANGE AP MOSUNNY   90  39  17 CALM      30.12F
ERIE MUNI ARPT FAIR      92  41  17 SE5       30.08F
BOULDER MUN AP FAIR      88  52  29 W3        30.11F
CENTENNIAL     MOSUNNY   90  38  16 CALM      30.14F
BROOMFIELD     NOT AVBL
LOVELAND       SUNNY     91  54  27 SE5       30.08F
LONGMONT       FAIR      92  48  22 CALM      30.11F
$$

COZ041-046-047-076>085-087-088-012100-
...PIKES PEAK/PALMER DIVIDE AND SOUTHERN FOOTHILLS...

CITY           SKY/WX    TMP DP  RH WIND       PRES   REMARKS
COLO. SPRINGS  PTSUNNY   82  50  32 E8        30.20F
A. F. ACADEMY  MOSUNNY   84  51  31 VRB5      30.20F
ELLICOTT       FAIR     N/A N/A N/A SE8G16    30.19F
FALCON         FAIR      83  51  33 E8        30.26F
FORT CARSON    MOSUNNY   84  51  31 N3        30.16F
LIMON          SUNNY     85  54  34 SE10G18   30.15F
MONUMENT HILL  NOT AVBL
TRINIDAD       MOSUNNY   87  50  27 VRB3      30.15F
$$

COZ042>045-048>051-090-091-012100-
...NORTHEAST COLORADO...

CITY           SKY/WX    TMP DP  RH WIND       PRES   REMARKS
GREELEY ARPT   SUNNY     93  48  21 S3        30.07F
AKRON          SUNNY     91  50  24 SE14G22   30.09F
BURLINGTON     SUNNY     87  51  28 SE14G25   30.11F
WRAY           FAIR      94  49  21 S15G22    30.05F
STERLING       FAIR      95  52  23 S6        30.02F
HOLYOKE        NOT AVBL
FORT MORGAN    FAIR      93  45  19 S10       30.07F
$$

COZ086-089-092>099-012100-
...SOUTHEAST COLORADO...

CITY           SKY/WX    TMP DP  RH WIND       PRES   REMARKS
PUEBLO         SUNNY     93  50  23 VRB3      30.07F
LA JUNTA       SUNNY     92  56  29 E7        30.05F
LAMAR          MOSUNNY   90  60  36 S10G16    30.02F
SPRINGFIELD      N/A     88  63  43 SE7       30.08F
$$




USA.gov is the U.S. government's official web portal to all federal, state and local government web resources and services.